Theta_e
326 325 327 330 332 334 335 334 334 336 336 337 338 338 338 338 337 336 335 334 331 329 328 327 323 319 319 319 318 317 315 313 312 311 310 310 310 310 310 310 310 311 315 322 326 326 328 332 335 338 341 342 339 334 332 330 326 325 324 323 321 321 322 322 323 323 324 327 329 330 332 330 329 328 326 327 328 327 327 327 325 326 329 331 331
325 325 325 328 330 332 334 334 334 335 336 337 338 338 338 337 337 336 334 333 330 328 326 325 322 319 317 317 317 316 315 313 312 311 310 310 310 309 310 309 311 313 318 325 325 327 330 332 335 339 341 340 336 333 332 330 326 324 324 323 321 321 322 323 324 325 325 327 328 329 331 329 329 328 324 326 327 327 327 327 326 326 330 332 331
324 325 325 326 329 330 333 334 334 335 337 337 338 338 337 337 336 335 335 333 330 328 327 325 322 319 317 316 316 316 316 314 312 311 311 310 309 309 310 310 312 315 320 325 325 329 333 334 338 340 340 338 335 333 332 329 327 325 325 323 321 321 323 325 326 327 327 327 327 328 329 328 328 328 326 328 329 327 326 327 327 327 331 332 331
324 324 324 327 328 328 331 333 333 335 336 337 337 336 336 336 336 335 335 334 331 330 329 326 324 321 317 316 315 315 315 315 314 312 311 309 310 309 310 311 312 315 320 325 327 332 336 337 339 340 339 338 335 333 333 327 325 325 324 323 323 324 326 328 329 329 327 326 325 325 326 326 326 326 327 331 331 327 325 327 328 330 332 333 332
323 323 324 326 327 328 328 330 332 334 335 336 335 334 335 335 335 335 335 334 333 331 329 327 325 322 317 315 314 314 315 318 317 313 314 312 311 310 311 312 311 315 320 324 330 335 337 338 338 338 337 337 334 334 334 328 324 324 324 325 326 328 328 329 329 327 324 322 321 322 323 323 322 324 328 330 332 327 325 327 331 333 332 333 333
323 323 324 325 326 328 328 329 330 333 334 334 333 332 332 334 335 334 334 333 332 329 327 327 326 323 320 317 315 315 315 320 319 317 324 322 315 314 314 314 313 313 318 325 332 335 337 338 338 338 337 336 335 335 336 330 326 325 325 328 329 329 329 330 327 321 319 319 320 320 320 320 319 324 329 331 332 326 326 329 332 334 332 334 334
323 323 324 325 326 327 329 330 330 332 333 332 332 331 332 334 333 332 334 332 329 327 328 329 328 328 329 326 322 322 321 322 319 319 329 330 323 319 317 317 316 313 317 326 332 335 337 338 337 339 337 337 336 335 336 332 328 327 327 329 329 330 330 327 321 315 315 318 320 320 318 318 321 327 330 331 331 326 329 332 332 334 333 334 334
322 322 324 325 326 328 329 330 331 332 332 332 331 331 333 334 332 331 334 331 328 328 329 330 330 332 333 333 331 331 329 325 324 323 329 332 328 325 321 319 319 314 317 328 332 335 337 337 337 338 336 336 336 335 336 333 330 329 328 329 330 330 328 322 315 312 315 318 318 318 316 319 326 331 330 329 330 329 332 334 333 334 333 333 333
320 320 323 326 327 328 329 329 330 330 331 332 330 332 334 333 331 332 332 330 328 329 329 329 330 332 334 334 333 333 331 327 328 329 330 332 330 329 325 320 321 316 320 330 333 335 337 336 337 337 336 336 335 336 335 332 331 331 330 330 331 329 324 318 313 312 314 317 317 316 317 323 329 332 331 329 330 332 333 334 334 334 333 333 333
319 318 320 324 327 329 328 328 328 328 331 332 331 332 333 332 331 331 330 328 329 330 329 330 330 331 333 334 334 332 330 330 330 331 332 333 332 333 328 321 322 320 324 331 334 336 337 337 337 337 337 337 336 335 332 330 330 331 330 331 329 326 322 317 314 312 314 317 317 318 321 325 329 331 331 329 330 332 332 333 334 333 333 332 333
317 316 316 319 324 329 328 327 327 328 331 333 332 331 331 331 331 331 329 326 328 329 329 331 331 329 329 332 333 331 330 330 331 331 333 333 334 335 330 321 323 323 327 331 334 336 336 337 337 337 337 336 336 333 330 329 330 330 330 329 327 324 322 318 314 312 316 318 319 323 325 326 328 330 330 329 331 332 333 333 332 332 332 332 332
316 315 314 315 318 325 328 327 326 327 330 333 332 331 331 330 331 331 328 326 327 329 330 331 331 331 330 330 331 331 331 331 332 333 333 333 334 336 330 321 324 327 329 332 334 336 336 337 337 337 338 336 333 331 329 329 329 329 328 327 325 324 322 319 315 314 317 320 322 325 326 327 329 330 330 330 331 331 332 332 332 332 332 332 331
316 315 314 315 314 319 327 328 326 326 330 332 332 331 332 331 331 329 328 328 328 329 330 330 330 331 331 330 331 331 331 331 331 333 333 333 334 337 330 322 326 330 331 333 335 336 336 336 337 338 337 334 331 329 328 328 328 327 326 326 325 324 322 319 317 316 318 320 325 327 327 327 329 330 328 329 330 330 332 331 331 331 332 332 331
316 315 314 314 314 316 324 328 326 325 328 331 332 331 331 331 329 327 327 328 329 329 329 330 330 331 330 330 331 330 330 330 330 331 332 332 334 337 332 326 329 332 332 334 335 336 336 336 337 337 335 332 330 329 327 326 326 325 326 325 324 324 322 319 318 318 319 321 326 328 328 328 328 329 328 329 330 330 331 331 331 331 330 331 330
315 315 314 314 314 316 322 327 327 326 326 329 331 331 331 330 329 326 326 327 328 328 328 330 330 330 330 330 331 330 330 329 329 330 330 331 334 335 334 331 331 334 334 335 336 335 336 336 336 335 333 332 331 328 326 325 325 325 325 325 324 324 321 319 319 320 321 323 327 328 328 327 327 327 328 329 330 329 330 330 331 331 330 329 327
315 314 314 314 314 316 320 325 328 326 326 328 330 330 330 330 328 326 325 326 327 327 328 330 330 330 330 330 330 329 329 329 328 329 329 331 332 333 335 334 333 335 335 335 335 335 336 335 335 334 332 332 331 328 326 325 325 325 325 324 324 323 321 319 319 320 322 324 326 327 327 327 326 326 327 328 329 329 329 330 330 330 330 328 326
315 313 312 313 313 315 318 323 327 327 326 328 330 330 330 329 327 326 325 325 326 327 328 330 330 329 330 329 329 328 328 327 327 327 328 330 332 331 333 336 335 335 335 334 335 335 335 335 333 333 333 332 331 330 328 326 326 325 324 323 323 323 321 319 318 319 322 324 325 326 326 326 326 326 326 327 328 329 329 329 329 330 330 328 325
314 312 311 312 313 314 318 322 326 327 327 328 330 330 329 328 327 327 325 325 325 327 328 329 329 329 329 328 327 327 326 326 325 325 327 329 331 331 332 334 335 335 335 335 335 335 334 334 333 332 333 331 330 330 327 326 325 325 323 322 322 323 321 319 318 317 320 322 324 325 325 325 325 326 326 327 328 328 328 329 329 329 329 328 326
313 312 311 312 314 316 319 321 324 327 327 328 330 330 329 328 327 326 324 324 324 326 328 328 329 328 328 327 325 324 324 326 324 322 324 327 330 331 331 332 333 334 334 334 334 334 333 332 332 331 331 329 328 329 326 324 324 323 323 321 321 323 321 319 317 316 320 322 323 324 325 324 324 326 327 327 327 328 328 328 328 328 329 327 326
313 312 312 312 314 317 321 322 323 326 328 329 330 330 329 328 327 324 323 323 324 325 327 328 328 328 328 326 323 321 321 325 324 322 323 326 328 331 331 330 331 331 331 331 330 330 329 328 328 328 328 327 327 326 322 320 319 320 322 321 321 323 321 318 316 316 320 322 323 324 324 324 324 326 327 327 327 327 326 326 326 326 327 326 325
314 313 312 312 313 317 322 324 324 325 328 329 330 330 329 328 328 324 322 323 324 325 325 327 328 328 328 325 321 318 318 323 325 324 325 327 329 330 330 329 330 330 329 329 328 327 325 324 325 325 326 325 325 321 317 318 318 319 321 321 322 322 321 318 315 315 318 320 322 324 323 324 325 327 327 327 326 324 323 323 323 324 325 324 324
314 314 313 312 312 315 321 324 325 324 327 329 329 329 328 328 328 325 323 323 324 325 325 326 327 327 327 326 321 317 317 321 324 326 327 329 328 328 329 329 329 328 328 328 327 327 326 324 323 323 324 324 324 320 319 321 321 321 322 322 322 322 320 316 314 314 317 318 320 321 322 323 325 326 327 326 325 322 322 322 322 323 323 323 322
313 313 312 311 310 313 318 322 324 325 326 328 329 328 328 328 328 326 323 323 324 325 326 326 326 327 327 326 321 317 317 321 325 327 328 328 328 327 327 327 327 327 327 328 327 326 327 327 325 323 323 324 324 321 321 322 322 322 322 322 322 321 318 315 313 315 317 319 319 319 320 323 324 326 326 325 324 322 322 321 320 320 320 320 320
312 312 311 310 310 311 316 320 323 325 326 328 328 328 328 329 329 327 323 322 322 324 326 325 326 327 327 325 320 317 317 320 325 328 329 329 328 326 326 326 326 327 327 327 326 325 327 328 327 325 323 323 322 321 321 322 322 322 323 322 321 320 317 314 314 317 320 321 321 321 322 324 324 325 324 323 323 322 322 320 319 318 318 319 318
312 312 311 310 310 310 314 319 322 324 325 328 328 328 328 329 329 327 323 320 321 323 324 325 326 327 326 323 320 317 314 316 322 326 329 328 327 326 324 325 324 324 324 324 323 322 324 326 327 326 323 323 322 321 321 320 321 322 323 322 321 320 315 314 317 319 322 323 323 323 323 324 323 323 321 319 321 321 321 319 318 317 317 318 317
312 312 311 310 310 309 311 317 321 323 325 327 328 328 327 328 328 327 323 320 320 321 321 323 325 326 324 321 319 316 314 314 319 324 329 327 326 324 321 322 321 320 321 319 317 314 317 321 322 322 321 322 321 320 321 319 319 322 322 321 321 319 313 315 319 320 323 323 323 322 323 323 323 322 319 318 319 320 320 319 318 318 317 316 317
312 312 311 311 310 309 310 316 320 322 324 326 328 328 327 327 328 326 324 322 320 320 320 321 322 322 322 319 318 316 312 314 318 321 327 327 325 322 317 317 317 318 319 315 312 311 313 318 320 320 319 320 321 320 321 320 320 322 322 321 320 317 312 316 320 321 322 322 321 321 322 323 323 323 319 318 319 318 319 317 316 318 317 316 317
312 312 312 311 310 309 310 313 318 321 323 325 327 328 327 326 327 325 324 324 323 321 320 320 320 319 319 319 317 316 312 312 318 320 324 326 325 324 318 315 315 319 321 317 315 314 314 320 323 322 321 322 321 321 321 321 321 322 321 321 319 315 312 315 319 320 320 320 320 321 322 323 323 323 320 319 319 319 319 315 315 318 315 314 316
312 312 312 312 311 310 309 311 315 320 323 324 326 327 326 326 325 324 323 325 325 323 322 321 319 317 318 319 318 317 313 311 316 322 325 327 326 325 320 315 316 319 321 316 313 313 313 317 323 324 324 323 321 321 321 321 322 321 321 320 317 315 313 314 315 318 319 319 320 322 323 322 321 321 319 319 319 320 320 315 316 319 317 313 314
314 312 312 312 312 310 309 309 312 318 323 324 325 326 326 325 324 323 323 324 326 324 324 323 321 318 318 320 320 320 316 311 315 323 326 326 325 324 321 317 317 318 319 315 309 309 311 314 320 323 324 322 321 321 321 321 321 321 320 318 316 315 315 315 316 318 319 319 320 322 322 320 319 319 317 318 319 321 320 317 316 317 317 314 313
315 313 313 312 312 311 309 308 309 315 322 324 324 325 326 326 324 323 322 323 324 324 324 324 323 321 320 321 322 321 319 315 316 321 325 325 323 322 321 319 318 316 314 315 311 306 308 312 316 321 322 321 321 321 320 321 320 320 319 316 316 316 316 316 317 319 319 319 320 322 321 319 318 318 317 317 319 319 318 318 317 315 316 314 313
315 314 314 313 312 311 309 308 307 312 320 324 324 325 325 326 326 324 323 323 323 324 325 325 323 323 323 322 322 321 320 318 318 322 324 324 322 320 321 321 320 318 314 314 312 305 306 311 316 320 321 320 321 320 320 320 320 319 317 315 316 317 316 315 317 319 319 320 321 321 320 319 318 318 319 319 319 319 316 316 317 316 316 314 313
314 315 315 314 313 312 310 308 307 309 316 322 324 324 324 325 327 325 323 323 324 324 325 324 323 323 323 323 322 322 321 318 318 322 323 323 322 319 319 321 321 319 315 313 312 310 310 312 315 318 319 320 321 320 320 320 320 319 316 315 315 317 316 315 317 318 320 320 320 320 318 317 318 318 319 320 319 319 317 315 315 315 316 315 314
313 313 314 314 314 313 311 309 308 307 310 318 324 324 324 324 326 326 323 323 324 324 323 322 322 323 324 323 323 322 320 317 315 319 322 322 322 319 318 320 321 320 317 316 316 315 316 315 313 313 315 318 319 319 319 319 319 318 316 314 315 317 317 316 317 318 319 321 320 319 318 316 316 317 318 319 319 319 317 315 314 314 314 314 314
311 311 312 313 314 314 312 310 308 307 307 313 321 323 323 323 325 326 324 324 324 324 323 321 322 324 324 323 323 321 320 319 315 314 319 322 321 318 316 318 321 320 318 318 317 315 316 317 314 312 313 317 318 318 318 318 318 317 315 314 314 316 317 317 318 318 320 321 320 318 318 316 315 315 317 318 318 318 317 315 315 315 314 314 314
310 310 310 312 314 314 313 312 309 308 307 309 318 322 323 323 323 324 324 324 324 324 323 322 321 323 324 323 322 321 320 319 317 313 316 320 317 315 317 318 321 320 318 319 318 315 315 316 313 311 312 315 317 318 317 317 317 316 314 313 313 315 317 317 318 318 320 320 319 318 317 317 315 313 315 317 317 318 317 315 314 315 316 315 315
309 308 308 309 312 315 315 314 311 309 307 307 316 322 323 323 323 323 323 323 324 325 323 322 321 322 323 324 322 321 321 320 318 314 313 315 314 316 319 320 320 319 319 319 318 316 314 312 311 311 311 312 315 317 317 317 317 315 314 313 313 315 316 318 318 318 320 320 319 317 316 317 316 313 313 315 316 316 316 315 313 315 316 316 316
309 308 307 308 311 315 317 316 313 311 308 307 312 318 321 322 322 322 323 323 323 324 324 322 321 321 322 323 322 322 321 319 318 314 310 310 311 313 318 320 319 319 318 318 319 319 315 312 311 311 310 310 314 317 316 316 316 315 315 315 315 315 316 317 318 317 318 319 318 317 316 316 316 314 313 314 314 314 316 316 315 315 316 316 316
307 307 307 307 309 314 318 318 316 313 310 309 311 316 320 321 322 322 322 322 322 322 322 321 321 320 321 322 322 322 321 320 318 314 311 311 310 309 313 316 317 318 318 317 318 320 317 316 315 311 310 311 314 316 316 316 316 315 315 315 315 315 315 316 317 317 317 318 318 318 317 316 316 315 314 313 313 314 315 316 316 316 316 316 316
306 306 306 307 308 311 316 319 318 315 312 312 314 318 322 322 322 322 321 321 320 320 320 320 320 320 322 323 322 322 321 319 318 316 314 313 312 312 312 314 315 317 319 318 318 320 319 318 317 313 312 313 315 316 316 316 315 315 315 314 314 314 314 314 315 317 317 318 318 318 318 317 316 315 315 314 314 313 314 316 317 317 317 316 316
306 306 306 307 307 308 312 316 318 317 315 314 316 319 321 323 322 320 321 322 321 320 320 320 320 321 322 323 321 321 321 318 317 316 316 317 316 316 317 318 317 318 319 318 318 319 318 318 316 314 313 313 314 315 316 315 315 314 313 313 313 313 313 313 313 314 315 316 317 317 317 317 317 316 316 315 314 314 313 315 316 316 317 316 316
305 306 307 307 307 307 309 312 315 316 316 315 317 319 319 319 320 319 319 322 322 321 320 321 320 321 322 322 321 321 320 318 316 315 317 320 320 319 320 320 319 320 319 317 318 318 317 317 316 314 313 311 310 313 315 315 314 313 312 312 312 311 310 310 311 312 313 314 315 316 316 316 317 316 316 315 315 314 313 314 314 315 315 315 315
304 305 307 307 307 307 308 309 311 314 315 315 316 319 320 318 318 319 319 320 321 321 321 321 321 321 322 322 321 321 320 318 317 315 316 319 320 321 321 319 320 321 319 317 317 316 316 316 316 315 313 310 310 313 314 314 313 312 311 311 311 310 310 310 311 311 312 313 314 314 314 314 315 316 316 315 315 314 313 313 314 314 314 313 313
303 305 306 307 307 307 307 308 309 311 314 314 314 317 320 320 318 318 319 320 320 322 322 322 321 321 322 322 321 321 320 318 317 317 315 317 318 319 320 320 320 319 318 318 318 317 316 316 316 315 313 310 310 313 314 313 313 312 310 310 310 310 309 310 311 311 312 312 312 313 313 314 314 314 315 315 314 314 313 313 313 313 313 312 311
303 304 305 306 307 307 307 307 308 310 311 313 314 314 316 320 321 320 319 319 320 321 321 321 320 320 321 322 321 321 321 319 318 318 316 315 316 316 317 319 320 319 318 319 320 319 317 317 316 313 310 309 309 312 313 312 312 310 308 308 309 309 309 309 310 310 311 312 312 313 313 313 314 314 314 314 314 313 313 313 312 312 312 312 312
303 303 304 305 306 307 307 307 307 308 310 311 314 316 316 318 320 321 322 320 320 321 320 320 321 321 321 322 321 321 321 320 318 318 318 315 315 315 316 318 321 320 319 319 320 320 316 313 312 309 306 307 308 310 312 312 312 310 305 303 305 306 306 308 308 309 310 311 311 312 312 313 313 313 313 313 313 312 311 310 309 309 309 309 309
305 303 303 304 305 306 307 307 307 307 308 310 312 315 318 318 318 319 322 322 320 320 321 321 321 322 322 322 321 321 321 321 319 319 318 316 314 316 317 320 321 320 320 320 321 320 317 312 309 306 304 305 307 308 309 310 311 311 308 304 303 302 303 305 307 308 308 309 309 310 310 311 310 310 310 310 310 309 308 306 305 303 303 303 302
307 305 304 304 305 306 307 307 307 307 306 308 310 313 316 319 319 318 320 322 321 321 321 321 321 321 322 321 321 321 320 321 320 320 319 316 315 317 319 320 321 321 321 321 321 321 320 316 312 310 306 303 304 304 305 306 306 307 308 307 305 302 301 301 303 305 306 307 308 308 308 308 308 308 307 307 307 306 303 301 299 298 298 298 298
306 306 306 306 306 306 307 307 306 307 307 306 308 311 314 316 319 320 319 319 321 321 321 321 321 321 321 321 322 321 321 321 321 320 319 318 317 318 320 320 320 321 320 320 320 320 319 316 314 314 309 303 302 303 303 302 302 303 305 306 305 304 303 300 301 303 303 304 306 306 307 307 307 307 306 305 304 301 298 296 296 296 297 297 298
304 305 306 306 306 306 307 308 307 307 308 307 307 309 313 315 317 320 321 320 320 320 320 320 320 320 320 321 321 322 322 321 321 320 320 319 318 319 320 320 320 321 320 319 319 318 314 312 313 314 311 305 302 302 301 301 301 301 301 301 302 304 305 301 299 301 301 302 303 304 305 306 306 305 303 301 298 296 295 296 297 297 298 299 299
303 303 303 303 305 305 306 306 306 307 309 309 307 308 312 315 316 318 320 322 321 320 320 319 319 319 320 320 321 322 322 321 321 320 320 320 319 319 319 320 320 320 320 319 318 316 311 308 309 311 311 307 303 301 301 302 302 300 300 300 301 303 304 301 298 299 300 301 301 302 302 302 302 300 298 296 295 295 297 297 298 298 299 299 300
Wind_Speed
15 15 16 15 14 15 16 15 14 15 16 16 16 15 14 14 15 15 15 15 15 14 16 18 19 19 19 19 20 21 21 21 20 21 21 20 19 17 17 16 16 16 16 15 15 15 16 18 18 23 30 28 25 26 27 28 29 29 29 28 26 24 21 19 16 14 12 11 10 10 10 10 10 10 9 9 9 9 10 10 11 12 13 13 12
13 13 13 13 14 15 17 16 15 15 15 15 15 15 14 14 14 15 14 14 14 14 14 16 18 19 19 19 20 20 20 19 19 19 19 20 19 17 17 16 16 16 16 16 15 15 16 19 19 25 30 27 27 27 27 27 29 29 29 28 26 23 20 17 15 13 10 10 9 9 10 10 10 9 7 7 8 9 10 10 10 11 13 13 13
11 11 11 13 14 15 17 17 16 15 15 15 15 16 14 14 14 14 14 14 14 13 13 14 16 17 19 20 21 20 19 19 18 18 18 18 18 18 17 16 16 16 17 16 15 15 17 19 23 30 29 27 27 27 27 28 28 28 29 28 24 21 17 15 13 10 8 8 7 8 9 9 9 9 8 8 7 9 9 10 10 11 12 12 13
8 9 11 13 14 15 17 17 17 16 16 16 16 16 14 14 14 15 15 15 15 14 14 14 14 15 17 19 21 20 19 18 17 17 17 17 17 17 17 16 16 17 18 17 15 15 16 19 27 31 28 27 27 27 27 27 28 28 28 27 23 19 16 14 11 9 6 5 6 8 10 10 10 9 9 9 9 9 9 10 12 12 13 13 13
6 8 10 13 14 15 17 17 18 18 18 17 16 16 16 15 14 15 15 17 17 16 15 15 15 14 15 17 19 19 19 17 17 17 16 16 16 17 17 17 17 19 20 18 16 14 16 23 28 27 27 27 27 26 26 27 27 27 27 25 22 19 15 13 9 6 4 5 6 8 10 11 12 11 11 11 10 10 11 12 14 14 15 16 16
7 9 10 12 14 16 17 18 18 19 19 18 17 17 17 16 15 14 14 16 17 15 14 14 14 14 13 14 15 16 17 16 17 16 14 15 16 17 17 18 17 19 21 19 17 16 18 28 31 27 26 26 26 26 24 27 27 26 26 24 21 18 14 11 7 4 4 7 9 9 10 11 13 13 12 12 10 12 13 13 15 15 16 18 19
10 11 12 13 15 17 18 19 19 19 18 18 17 18 17 16 16 14 15 15 14 13 12 13 12 13 13 12 11 13 14 15 16 15 13 13 15 17 17 18 18 20 22 19 18 18 21 30 32 29 28 27 27 26 24 26 26 25 24 22 20 17 13 9 6 5 7 10 11 10 10 12 16 15 13 13 11 13 16 15 16 17 18 19 19
11 12 13 15 15 18 20 20 21 19 18 19 19 18 17 17 16 15 15 15 13 11 11 12 12 13 13 12 11 11 12 13 14 14 13 13 14 15 16 19 19 21 21 19 19 21 26 30 29 29 28 26 27 26 24 24 25 24 23 22 19 16 12 8 7 8 11 12 12 12 13 17 19 17 14 15 15 16 18 18 20 20 20 20 19
12 11 13 16 17 19 21 21 21 20 18 18 18 17 18 18 17 16 16 14 12 11 11 11 12 14 15 14 13 12 11 12 12 12 13 13 12 13 15 19 20 20 21 21 21 25 30 30 27 27 27 27 27 25 24 23 23 23 22 21 19 16 11 9 9 10 12 14 14 15 17 20 21 18 16 17 18 18 19 20 22 23 22 21 19
13 12 13 15 18 21 21 21 22 20 17 17 18 17 19 19 17 16 15 14 13 13 13 14 14 15 16 15 13 11 11 12 13 13 13 12 11 12 15 19 20 21 21 21 24 30 32 30 29 28 27 28 27 25 24 24 24 24 23 21 19 15 11 10 10 11 14 16 18 19 20 21 21 19 17 18 19 20 20 21 21 21 21 21 19
14 13 13 14 17 21 22 22 22 21 19 19 20 19 20 19 18 17 14 13 14 15 15 16 16 16 16 15 14 12 11 13 14 14 14 12 11 12 15 20 22 22 23 23 26 32 32 30 32 31 28 28 28 26 25 25 24 24 23 21 18 14 10 10 11 13 17 20 22 23 22 21 21 19 18 19 20 21 22 22 21 20 20 20 19
15 15 14 14 16 20 23 23 22 23 20 20 21 20 21 19 19 17 14 14 15 16 15 16 17 17 17 16 15 13 13 14 15 15 13 12 11 11 15 21 23 23 25 24 26 32 33 33 34 32 30 29 28 27 26 25 24 23 23 20 17 12 10 10 12 15 20 23 24 24 22 21 20 19 19 19 19 21 21 20 21 20 20 20 20
16 16 16 16 16 19 24 25 23 24 22 19 21 21 21 21 19 17 15 15 16 16 15 17 18 19 18 16 16 15 15 15 15 15 12 11 11 11 15 22 24 23 24 24 26 32 33 33 33 32 30 29 28 27 26 25 24 24 22 19 15 11 9 11 13 17 21 24 24 23 22 21 20 19 18 18 18 20 20 19 20 20 21 21 21
16 17 17 16 17 19 23 26 25 24 23 20 21 23 23 23 20 18 16 16 17 17 16 18 18 18 18 17 17 16 15 14 16 15 12 11 10 10 16 23 25 22 22 23 25 30 31 31 32 31 30 29 28 27 26 26 25 24 21 18 14 10 9 11 14 17 21 23 23 22 20 21 19 17 18 18 18 20 20 20 20 20 21 22 21
17 17 17 18 17 19 21 25 25 24 25 22 22 24 24 23 21 19 18 17 18 18 18 19 17 17 17 17 16 14 14 15 15 15 12 11 9 8 14 24 25 22 24 25 24 29 32 31 30 29 29 28 28 27 26 26 25 23 20 17 13 9 8 11 15 17 21 23 23 22 20 20 18 17 18 18 18 20 20 21 21 21 21 21 21
18 17 18 19 18 18 20 24 25 24 26 23 23 24 24 23 21 20 19 19 20 20 20 19 17 17 17 17 16 14 15 15 15 15 14 13 12 9 11 22 24 22 26 28 27 30 32 31 30 30 29 28 26 26 27 26 25 22 19 15 12 9 8 11 15 17 20 22 23 22 21 19 18 17 17 17 18 20 20 21 21 20 20 19 20
18 18 18 19 19 19 19 22 24 25 26 24 24 25 24 24 21 20 21 22 23 23 21 19 16 16 16 15 14 14 16 15 15 16 15 14 15 12 10 18 24 24 27 28 30 32 32 31 31 30 29 28 26 26 26 25 22 20 17 14 12 9 8 11 14 16 18 21 23 22 20 18 17 15 16 16 17 18 19 19 19 18 17 17 18
19 18 18 19 19 19 19 21 24 26 26 26 25 25 25 25 22 20 22 24 25 24 22 19 16 16 15 13 13 15 16 16 17 17 16 15 16 15 13 17 22 25 27 29 32 34 32 29 29 28 26 27 27 26 25 23 20 17 15 14 12 10 9 10 13 15 18 21 23 22 19 18 17 15 15 16 17 17 18 18 18 17 15 15 16
20 19 18 19 18 19 19 20 24 26 27 27 26 26 26 25 22 21 24 25 25 25 22 19 17 16 15 12 13 15 16 17 18 18 17 17 18 18 18 18 19 22 24 26 30 30 28 24 23 23 22 24 25 23 21 20 19 17 17 15 13 11 9 10 12 16 19 21 22 21 20 18 17 15 15 15 17 17 17 17 18 18 15 14 14
22 21 20 20 18 18 20 21 24 26 27 28 27 27 26 24 22 22 25 26 25 24 22 21 20 16 14 13 14 14 15 18 19 19 18 19 20 20 21 21 21 22 22 21 22 22 19 16 16 17 19 21 22 19 15 16 18 19 19 17 15 12 9 9 12 17 20 21 22 21 19 18 17 16 14 15 16 17 16 15 16 17 15 13 13
24 24 22 21 20 19 20 22 24 25 27 29 29 28 25 24 24 24 26 26 24 23 23 25 21 16 15 15 14 14 15 17 20 21 21 23 23 23 23 23 23 23 22 20 19 19 15 13 15 16 17 19 20 17 16 18 19 19 20 18 15 12 9 9 12 17 20 21 21 21 19 18 17 16 14 14 14 15 14 13 15 16 15 14 14
25 25 24 23 22 21 20 22 25 26 27 30 30 29 27 27 26 26 26 26 25 23 25 25 21 18 18 18 16 15 16 17 20 22 25 27 26 24 24 23 22 22 22 21 18 17 15 16 18 18 18 19 21 19 19 21 21 20 20 17 14 12 9 9 13 17 19 20 20 20 20 19 17 15 14 13 12 14 13 13 15 16 16 15 15
26 26 25 25 24 23 22 22 24 26 27 30 32 30 29 29 28 28 27 26 26 25 26 25 22 20 20 19 18 17 17 17 18 21 25 27 27 25 24 23 22 21 22 22 19 17 16 17 19 19 19 22 23 22 23 23 22 21 19 16 14 12 10 10 15 18 20 20 20 21 22 19 17 16 14 13 13 14 14 13 15 15 16 16 16
26 25 26 26 26 25 24 23 24 26 27 29 33 32 30 29 29 29 28 27 27 27 27 25 24 22 21 20 18 18 18 18 18 19 25 28 29 25 22 23 22 21 21 20 19 18 18 19 21 21 22 24 25 26 26 24 23 21 19 17 15 12 10 13 18 21 21 22 22 23 21 19 17 16 15 14 13 14 14 14 15 16 17 18 17
27 26 27 27 27 26 26 25 24 26 28 29 33 34 32 31 30 30 29 28 27 28 28 25 25 24 22 20 19 19 19 20 20 21 26 27 28 23 20 21 20 19 20 19 19 19 21 22 22 22 23 26 26 27 27 24 23 21 19 18 15 11 11 16 20 22 23 23 23 21 19 18 16 16 15 14 13 14 15 15 16 16 17 18 18
30 29 28 26 26 27 28 27 26 26 28 30 33 35 35 33 31 31 30 28 28 28 28 27 26 26 23 21 20 20 20 22 23 23 26 24 25 20 17 17 14 14 17 20 21 20 21 22 23 24 25 27 26 26 26 23 21 21 20 18 14 11 13 19 22 23 24 23 22 19 17 17 16 15 14 15 16 16 16 16 18 18 18 18 18
33 32 30 27 27 27 29 29 27 27 28 31 34 36 36 35 32 31 30 29 29 29 29 28 27 26 23 21 20 20 21 23 25 23 25 23 23 19 17 15 13 13 16 21 23 20 20 20 22 25 25 26 25 25 25 22 21 20 19 17 14 13 16 21 23 23 23 22 21 18 17 17 16 14 14 16 17 16 16 17 18 18 18 19 19
33 35 34 31 30 29 30 30 29 28 29 32 34 37 37 36 34 32 31 30 30 30 29 28 27 26 23 21 19 20 21 23 25 24 26 26 24 21 20 19 18 17 19 22 23 21 21 19 20 24 25 26 26 26 24 22 21 20 18 17 15 14 18 21 22 23 22 21 20 18 18 18 15 14 15 17 17 17 16 16 17 16 15 17 19
33 35 37 35 33 32 32 32 32 30 31 32 34 37 38 37 36 34 32 31 31 31 28 27 28 27 25 22 20 20 22 23 25 25 28 28 27 23 21 21 21 20 21 22 23 23 22 21 20 22 24 25 25 25 24 23 22 21 20 18 16 17 19 21 22 22 22 21 19 18 19 19 15 12 14 17 19 20 16 15 17 17 15 15 17
35 35 37 38 36 35 34 33 34 33 32 34 35 37 39 39 38 36 35 34 33 32 29 28 28 28 26 24 21 20 22 24 26 28 30 31 29 26 23 24 24 24 23 22 22 24 24 23 23 23 25 25 24 25 24 24 24 22 20 17 18 19 20 21 21 22 22 20 18 19 20 19 17 16 18 20 20 21 18 15 16 17 15 12 16
39 38 37 38 39 38 36 34 35 35 35 36 36 38 41 41 40 38 37 37 35 33 31 30 29 28 27 24 22 21 22 26 28 30 32 34 33 29 27 26 27 27 26 24 22 23 23 24 24 24 26 26 25 25 25 26 25 23 20 18 20 20 20 21 21 20 20 19 19 20 20 17 17 19 22 22 20 19 18 17 15 15 15 12 17
42 41 39 40 42 41 38 35 35 37 37 38 38 39 41 42 42 41 40 38 36 34 32 32 30 29 28 25 23 22 24 28 31 32 34 38 37 33 29 28 28 29 28 27 26 24 24 24 24 25 26 26 26 26 27 26 25 23 20 20 21 21 20 20 20 20 18 19 20 21 20 18 17 19 22 23 21 20 18 18 17 15 14 14 18
45 43 41 42 43 43 41 38 36 38 39 40 40 41 40 41 43 43 42 40 38 36 36 35 33 30 29 27 24 24 25 29 34 34 35 38 39 35 31 29 29 30 31 29 28 27 26 26 26 26 26 26 27 27 26 26 24 23 21 20 22 22 20 19 20 19 19 20 20 21 20 19 19 18 19 21 21 22 19 17 17 15 16 16 17
48 46 44 43 43 45 45 41 38 38 40 41 42 43 42 42 43 44 43 42 40 39 39 36 33 32 32 29 27 27 26 30 35 35 37 39 39 37 31 31 32 31 31 30 29 29 28 27 27 27 27 27 28 27 26 25 24 23 21 21 21 22 21 19 20 19 19 21 22 23 20 18 19 17 17 20 21 22 19 15 15 14 16 16 17
48 47 46 44 42 45 47 44 41 39 40 42 44 44 44 43 43 46 45 43 42 40 39 36 33 31 32 30 28 28 28 30 34 35 39 39 36 35 33 33 34 31 31 30 29 31 29 26 26 27 27 28 28 28 27 26 25 23 22 20 20 21 21 20 20 19 19 23 24 24 21 17 17 17 18 20 22 21 18 16 16 15 13 13 15
45 46 46 45 43 45 47 47 44 41 40 42 45 44 44 43 42 45 46 45 43 42 40 38 35 33 32 30 28 30 29 30 35 35 35 36 35 36 38 39 36 32 31 30 30 31 30 27 27 27 27 28 28 28 27 26 25 23 21 20 20 21 22 21 21 20 20 23 25 24 22 19 15 17 19 19 20 20 19 17 17 17 15 13 13
38 40 41 43 43 43 46 48 46 44 41 41 45 46 45 44 44 44 45 46 45 43 42 40 39 37 35 31 29 32 31 31 37 36 32 35 38 39 40 42 38 34 31 31 31 28 29 30 30 28 25 26 29 28 27 26 25 24 22 21 21 22 22 22 22 21 20 22 25 24 22 18 14 15 19 18 17 17 18 18 18 18 18 17 16
30 31 33 37 40 41 44 48 48 46 43 41 43 46 46 45 45 45 44 44 45 44 43 42 42 40 38 35 32 31 31 32 36 37 36 38 40 39 39 39 37 35 33 33 30 26 27 28 29 29 25 25 30 30 28 27 26 24 23 23 22 23 23 23 23 22 21 21 23 25 23 20 15 14 16 16 16 16 16 18 20 20 19 18 18
33 29 27 28 34 37 41 46 48 47 44 41 40 43 45 44 44 44 44 45 44 44 44 44 43 41 39 37 36 32 31 33 36 37 38 39 40 39 39 38 37 36 36 35 33 29 27 25 26 29 28 26 30 30 29 27 26 25 25 24 23 23 24 24 23 23 23 22 21 23 23 21 19 18 16 15 15 15 15 17 18 18 18 18 17
40 36 30 25 26 30 36 42 45 45 44 41 40 43 45 46 45 43 44 45 44 42 43 43 41 40 38 38 39 36 32 34 37 40 40 39 40 40 41 42 40 39 39 38 36 33 30 28 27 29 29 28 29 29 29 28 27 26 25 24 23 22 24 24 23 22 22 23 22 21 22 23 22 22 20 17 15 16 15 16 17 16 16 16 16
42 41 37 31 26 24 28 36 42 44 44 42 42 46 49 50 49 47 45 46 46 43 40 41 42 40 38 39 41 38 35 35 37 41 41 40 41 41 44 47 45 44 41 37 35 33 31 30 28 27 29 31 31 30 30 30 29 28 26 24 23 22 22 23 23 23 21 21 21 20 21 23 24 24 23 19 18 18 17 17 17 16 16 16 16
42 42 40 36 32 27 24 28 37 44 45 44 45 49 53 53 51 50 49 49 49 47 44 43 42 42 41 41 41 40 38 36 37 41 42 41 43 43 45 47 47 46 40 35 35 33 31 32 30 28 30 31 32 32 32 32 31 30 29 27 24 21 21 22 23 23 22 21 20 19 18 20 22 24 24 22 19 19 19 19 18 18 17 17 17
39 42 41 38 36 33 29 27 30 40 46 46 46 49 52 53 53 52 51 51 50 48 47 44 42 43 43 42 41 41 40 38 39 42 42 41 42 43 43 43 44 44 38 35 35 33 32 32 30 29 31 31 31 32 33 34 33 32 30 28 26 24 21 22 24 24 24 23 22 20 18 18 19 20 21 21 20 20 20 20 20 20 20 20 21
37 40 41 38 38 37 34 30 28 34 43 47 48 49 50 50 51 50 47 48 49 47 46 45 43 43 44 43 42 42 42 40 41 43 43 42 42 43 43 42 42 40 38 36 35 33 33 30 29 30 32 33 33 33 33 34 34 34 32 29 25 24 23 24 27 25 24 25 24 23 22 20 19 19 20 20 20 21 21 22 22 23 22 23 23
36 37 41 40 39 39 38 34 30 31 38 45 48 49 49 48 47 47 46 46 46 47 48 48 46 46 46 45 44 43 45 43 42 44 44 44 44 45 44 43 42 40 38 37 34 31 30 28 28 30 31 35 37 37 36 35 35 34 34 30 25 24 27 28 28 26 26 27 26 26 26 25 24 23 23 24 23 23 23 23 24 24 25 26 26
37 33 36 40 41 40 39 37 35 32 33 41 47 48 49 50 47 46 48 49 48 50 52 52 50 50 49 48 46 45 47 47 45 46 47 46 47 46 44 43 42 40 39 38 35 32 31 30 30 30 30 34 38 38 38 37 35 34 34 32 28 26 29 31 29 27 27 29 28 28 29 29 28 28 27 28 27 26 24 23 24 24 25 26 26
42 33 30 32 38 42 39 36 37 35 33 35 43 47 49 51 52 51 51 52 54 55 55 55 53 51 50 50 48 46 47 48 48 49 48 48 49 48 45 44 42 41 40 39 37 35 34 33 32 30 30 34 36 37 38 39 38 37 35 35 31 23 22 30 33 31 29 31 30 30 30 29 29 28 28 28 26 25 24 23 22 22 23 23 23
45 38 33 30 32 39 41 37 35 36 35 33 37 47 52 52 53 55 55 53 54 56 56 55 53 52 52 52 51 48 48 49 49 50 50 49 49 48 46 44 43 42 41 39 38 36 33 32 31 31 32 33 36 37 39 41 41 42 40 38 34 24 18 22 30 31 30 33 33 31 31 29 28 27 26 25 24 23 22 21 21 20 20 20 20
46 42 38 34 30 32 38 39 37 37 36 35 34 42 52 56 55 56 58 58 55 53 53 53 52 53 53 53 52 51 49 49 50 50 50 50 50 48 46 45 45 44 42 40 38 34 31 31 31 32 33 34 35 37 40 42 42 43 42 41 39 32 22 18 22 27 28 31 34 34 33 31 28 26 25 24 23 22 21 20 20 20 20 19 19
44 43 41 39 35 31 32 36 37 38 38 36 35 36 47 55 58 57 57 59 58 54 51 51 51 52 53 54 54 54 52 50 51 50 50 51 51 49 47 47 47 45 43 41 38 34 33 33 33 33 33 33 35 37 39 40 41 42 41 41 41 38 31 24 23 28 29 29 32 35 34 32 30 28 25 25 24 22 21 20 19 19 19 19 19
43 43 43 42 40 33 30 32 34 35 37 36 35 34 42 52 57 60 59 57 58 56 53 51 52 52 53 55 56 56 55 52 51 51 51 52 52 51 50 48 48 46 44 41 38 37 36 34 34 34 34 34 34 36 37 37 38 40 39 39 38 36 35 29 27 31 32 30 32 35 33 31 29 28 26 25 23 22 20 20 20 21 20 20 20
Wind_Direction
206 201 205 204 208 207 208 210 208 210 213 214 216 218 219 230 238 242 246 251 253 247 244 244 242 235 227 223 224 225 229 233 234 233 232 232 232 231 230 229 228 227 219 209 202 202 202 206 211 193 181 174 171 168 171 176 175 176 173 172 172 170 172 170 172 174 170 165 167 162 150 151 150 149 143 132 134 131 123 123 123 122 119 119 125
201 199 203 203 209 207 209 212 211 213 218 219 219 224 227 234 232 235 243 248 251 247 244 245 246 242 237 231 229 226 227 229 229 228 226 227 229 229 228 224 223 219 210 202 200 199 198 208 207 188 182 173 166 166 171 175 176 177 176 177 176 175 176 175 179 179 180 178 182 180 161 161 168 171 160 144 146 142 133 128 124 122 120 124 131
192 196 202 203 207 208 211 211 212 214 217 218 220 230 233 232 229 232 238 242 244 239 238 239 243 244 241 237 234 230 227 226 225 226 224 225 227 227 225 220 218 212 205 201 200 197 200 207 195 181 176 169 165 168 172 176 177 178 180 181 179 177 178 180 184 182 187 187 191 192 180 179 181 183 169 151 152 155 147 136 130 127 125 129 135
192 194 199 202 208 209 212 211 213 213 216 219 224 235 234 229 233 239 236 235 233 230 233 232 234 236 239 237 235 232 227 224 223 226 224 224 226 226 222 217 214 208 203 199 199 198 199 195 185 175 168 165 166 171 175 179 180 180 181 180 179 179 180 183 185 186 190 191 192 193 195 197 187 178 169 156 157 166 162 145 134 133 134 137 138
201 204 204 204 210 211 212 211 212 213 216 220 227 234 234 233 236 238 232 229 228 231 236 233 230 228 232 233 233 232 228 226 223 223 225 226 225 225 222 216 212 207 202 197 196 197 194 183 178 174 169 169 170 175 177 179 183 181 180 178 179 179 179 184 185 190 192 187 179 181 189 189 178 166 162 160 163 169 162 151 140 139 143 142 139
230 222 217 211 213 213 214 213 212 213 217 220 226 231 233 234 234 235 230 228 227 232 236 231 229 226 229 229 234 234 229 230 224 220 225 230 225 224 222 217 212 205 200 195 193 197 196 182 175 173 172 173 174 178 179 180 184 182 179 178 177 177 179 181 179 185 180 165 158 165 170 165 159 151 153 154 163 167 153 147 143 144 149 144 136
241 227 219 216 215 214 216 215 213 212 218 221 223 227 229 232 235 234 232 232 228 227 227 224 223 223 225 227 236 237 237 240 232 224 226 232 227 223 220 216 211 202 197 191 194 199 193 182 177 174 171 173 175 180 181 180 182 181 181 178 176 177 175 171 166 167 155 149 147 151 149 142 139 138 148 149 151 157 149 144 143 144 149 146 136
236 224 217 217 215 215 216 216 215 213 217 220 221 223 225 231 236 232 230 237 234 225 221 220 222 222 221 222 227 229 242 247 237 231 233 238 230 224 218 211 205 198 195 190 195 196 184 180 181 177 174 179 179 181 184 181 180 181 182 179 177 174 166 158 153 149 143 142 141 136 132 132 131 132 145 148 144 147 148 145 143 144 142 143 141
236 221 215 217 217 217 217 217 216 215 216 220 221 220 223 230 232 228 229 236 234 228 224 222 224 226 221 216 217 223 241 242 231 231 239 241 231 228 217 204 199 194 191 193 198 192 182 181 182 177 177 184 184 183 186 184 181 181 181 177 173 167 155 144 137 137 138 138 134 126 125 130 131 134 144 148 146 148 151 147 143 143 138 138 141
236 223 217 218 220 222 220 218 217 214 212 220 221 216 222 228 226 225 229 234 232 230 227 225 225 228 226 218 215 223 237 233 226 230 238 238 227 226 215 198 193 190 189 198 199 186 182 182 180 177 179 183 182 183 183 180 177 176 176 172 168 160 143 126 125 134 137 135 130 123 125 133 136 140 147 150 151 152 151 148 144 143 141 137 136
235 230 226 223 223 226 224 222 220 214 208 217 220 214 220 222 221 223 228 233 233 232 230 230 230 229 230 228 221 223 233 230 229 232 237 238 225 218 211 197 189 188 189 200 200 186 184 186 180 178 181 182 182 184 180 174 172 173 173 169 165 154 133 118 123 134 137 134 131 127 129 138 141 143 148 148 150 149 146 145 143 142 142 138 135
236 236 236 232 230 229 227 225 223 216 208 216 218 214 217 217 217 220 224 229 232 233 231 233 234 230 225 228 229 226 229 229 231 232 238 241 229 217 208 194 188 191 191 198 200 188 186 184 178 176 180 182 183 183 177 173 173 174 172 168 163 150 126 117 126 136 137 136 134 133 138 142 143 146 148 146 148 147 144 144 142 139 138 136 133
241 242 240 237 236 233 229 227 226 218 210 215 218 215 215 214 214 217 220 224 228 231 232 233 231 229 227 228 232 231 229 226 231 237 240 239 233 219 200 190 191 194 194 196 194 185 183 179 173 175 179 182 183 181 177 176 176 175 171 166 161 147 126 121 130 137 140 140 136 136 142 143 144 148 149 148 150 147 145 144 142 139 136 132 131
244 245 241 240 240 237 232 230 230 221 211 212 218 217 214 213 212 214 218 220 226 230 232 236 229 227 230 226 227 233 232 225 230 238 240 236 233 219 196 190 192 193 193 193 187 179 178 174 172 175 179 182 183 181 178 177 176 174 170 165 160 148 132 130 136 140 142 143 137 136 142 144 144 147 149 149 150 149 149 147 142 139 136 132 130
243 243 241 242 242 238 235 234 232 224 213 212 218 219 216 212 211 214 218 219 226 231 231 234 230 226 228 225 224 226 227 223 225 236 239 233 226 214 197 193 192 192 190 183 181 180 176 171 171 176 176 177 181 182 179 176 174 170 168 166 163 156 142 138 142 145 147 148 143 139 142 144 146 149 150 149 149 151 150 147 144 140 138 135 134
239 241 241 241 242 239 236 235 234 226 217 217 220 218 216 213 212 216 219 220 226 231 230 230 227 224 224 223 225 220 218 219 221 231 235 228 217 209 195 193 195 192 184 176 175 177 174 171 172 174 175 174 174 178 178 175 172 168 167 169 171 169 154 146 147 152 154 155 152 145 142 145 148 152 155 152 150 153 152 150 148 144 141 141 144
238 240 239 238 238 239 236 234 233 228 222 220 219 215 216 215 214 220 221 221 223 226 227 227 221 219 221 220 223 218 216 215 215 224 227 221 211 208 187 184 189 180 174 171 170 171 169 169 171 173 177 178 173 175 177 172 170 168 169 176 181 182 165 155 153 158 162 161 160 153 147 149 151 152 157 155 150 153 154 155 153 149 147 151 157
237 237 234 234 235 238 237 233 231 229 224 221 218 215 217 218 217 222 223 222 220 220 223 226 218 214 220 218 221 217 211 210 212 218 220 214 204 202 186 176 178 169 168 166 163 166 165 167 173 176 179 178 177 179 178 173 172 170 175 186 190 192 176 163 161 164 167 166 165 162 156 152 152 152 155 154 147 149 153 154 155 154 155 162 168
235 234 231 233 234 235 235 234 231 228 225 221 217 216 218 219 220 222 224 222 219 218 219 224 221 216 219 214 216 215 206 207 212 216 215 208 200 197 186 176 171 163 165 163 159 161 161 165 173 178 179 179 181 181 179 176 177 181 188 198 200 198 183 171 172 173 172 169 166 167 163 154 151 151 152 151 144 145 149 152 156 158 162 166 167
234 234 233 234 235 233 233 234 234 229 224 221 219 218 218 220 222 224 223 224 223 220 219 223 219 210 217 217 213 214 208 206 211 215 213 207 201 194 186 181 177 167 163 162 160 161 161 167 176 182 183 183 185 182 181 178 178 187 195 202 204 200 188 181 182 180 176 172 167 167 165 157 153 152 151 153 151 150 151 155 159 160 166 160 150
238 236 236 237 236 233 231 232 235 232 225 221 222 222 221 221 223 224 224 227 227 223 223 227 221 207 214 220 217 218 209 205 212 214 210 202 194 188 184 182 182 174 169 169 165 163 164 172 183 188 186 185 186 184 184 183 182 187 193 199 202 197 190 186 186 183 179 174 170 168 163 155 153 152 149 152 159 161 156 154 154 154 161 152 141
246 242 241 241 239 235 231 231 234 234 227 220 220 223 222 223 223 223 224 228 228 225 226 231 229 217 215 223 228 224 209 205 211 214 211 197 187 188 184 179 183 179 174 176 173 170 170 171 177 181 185 189 189 189 187 184 183 184 188 194 197 190 183 184 185 183 178 174 171 168 161 156 153 153 151 148 157 163 152 149 150 149 150 145 138
254 251 249 246 243 239 234 232 233 234 230 220 218 222 223 223 222 223 224 226 226 225 227 230 231 223 220 227 228 221 210 207 207 212 216 199 185 189 184 177 183 182 175 174 175 177 179 177 178 177 182 191 191 189 186 182 181 184 188 190 190 182 172 178 180 177 173 168 165 162 160 157 153 152 156 154 151 152 147 146 152 150 144 138 135
263 262 258 252 248 243 238 235 233 234 232 223 218 222 224 223 222 223 224 224 224 224 226 229 228 225 224 226 221 219 216 210 206 207 216 201 185 186 180 174 179 182 179 176 180 186 189 185 184 183 184 191 191 187 184 183 184 185 187 183 179 172 166 175 175 172 168 162 158 155 154 151 150 149 154 160 147 143 149 149 150 147 141 136 134
264 264 261 257 254 247 241 237 234 233 233 226 220 221 224 225 223 223 223 222 223 223 224 225 226 226 227 227 221 222 221 215 212 209 218 203 181 178 174 174 179 182 187 190 194 196 198 195 190 190 189 191 191 188 186 186 187 185 184 179 173 168 166 172 173 170 165 161 156 153 151 147 150 151 154 169 159 148 153 153 148 141 138 137 132
259 259 262 260 257 250 243 239 235 233 233 229 223 221 224 226 223 223 223 221 223 223 222 222 224 228 230 230 225 222 221 220 218 215 224 205 172 171 170 175 186 185 193 198 198 197 200 202 198 196 193 194 195 193 190 190 189 185 182 177 172 168 167 172 173 170 166 163 159 156 156 148 149 149 151 168 165 157 155 152 147 139 138 135 126
263 260 261 259 258 252 244 238 236 234 232 230 225 222 224 226 223 222 223 221 222 222 222 223 224 229 232 233 228 224 220 219 220 218 225 208 177 178 182 193 214 205 201 199 196 198 200 201 199 195 191 191 193 193 192 192 189 183 180 176 171 168 168 174 176 173 169 166 164 162 161 152 148 147 148 158 158 157 160 155 146 142 146 135 124
266 262 259 256 256 255 247 238 236 235 232 230 226 223 224 225 223 222 222 222 224 221 222 225 226 229 230 234 232 228 222 218 220 218 222 213 192 193 196 202 210 204 205 203 199 199 201 202 194 189 187 186 188 190 189 187 185 183 180 176 174 169 169 176 180 177 172 170 166 162 160 151 147 146 147 156 152 151 158 153 142 142 151 140 128
265 262 258 255 254 255 252 242 238 235 232 231 227 223 222 223 223 223 222 221 223 222 224 226 228 230 229 234 235 229 222 215 214 216 225 219 201 205 206 199 196 195 203 203 198 196 199 203 195 186 186 186 185 185 183 181 181 181 180 178 177 172 171 178 181 179 176 172 163 157 156 146 143 146 151 160 152 149 154 148 144 142 146 145 132
272 264 257 255 252 252 253 248 240 235 232 231 229 223 221 222 223 223 223 221 222 224 226 227 227 229 230 234 235 230 220 210 207 209 221 220 210 214 211 198 193 193 196 195 193 192 193 197 195 188 186 187 186 184 181 180 180 181 185 182 176 172 173 177 178 179 176 172 163 156 153 142 144 151 156 164 158 153 153 145 148 147 145 148 135
279 267 262 257 250 248 253 251 242 235 232 231 231 226 223 223 222 222 223 222 224 226 227 226 224 226 230 234 234 230 218 206 204 206 212 217 215 217 211 200 196 192 188 190 191 189 189 192 193 189 188 189 189 188 185 183 182 184 187 182 175 173 174 176 176 177 174 172 167 158 150 139 145 152 152 158 159 158 158 151 148 145 144 144 134
281 276 274 261 251 248 250 252 246 236 232 231 231 230 226 224 223 222 223 224 224 224 224 225 225 223 226 232 232 230 222 208 204 207 212 215 213 213 211 205 203 197 189 190 189 183 184 187 189 190 190 190 190 189 189 187 183 183 183 180 176 176 176 177 178 176 170 170 165 155 147 139 144 153 150 152 158 157 158 157 150 142 141 136 131
285 284 276 262 257 252 248 251 249 238 231 230 231 232 230 227 224 222 221 224 224 222 223 226 228 226 224 229 230 228 225 209 203 207 214 218 214 209 212 212 208 202 193 189 187 184 184 184 184 188 191 192 192 190 188 187 183 182 182 181 178 179 180 180 180 177 171 170 161 150 150 148 149 153 149 149 155 152 148 149 147 143 140 131 128
289 284 273 266 263 254 248 248 248 242 234 230 229 231 232 230 227 224 221 222 225 226 226 228 230 229 226 226 226 225 221 208 203 206 214 220 213 206 215 218 211 207 197 191 192 189 184 181 178 182 190 194 195 194 190 187 186 185 183 181 180 181 183 183 182 180 177 172 161 154 157 159 158 157 149 145 150 149 143 143 144 143 142 136 131
295 285 278 274 265 255 250 247 247 245 237 231 228 229 232 232 229 224 223 223 226 228 229 230 227 225 225 222 222 226 223 211 205 205 215 221 213 209 219 220 214 209 200 194 192 184 176 178 176 178 191 197 197 196 194 190 189 188 183 180 180 181 184 185 183 183 183 174 163 159 165 171 167 164 159 149 149 149 146 146 145 146 148 141 132
303 293 284 276 264 254 251 248 246 246 241 233 228 229 231 232 232 227 224 225 226 227 228 229 225 222 223 222 222 228 226 217 209 206 211 215 214 217 219 218 214 205 197 190 187 181 174 177 179 181 191 196 198 196 193 191 190 187 183 180 179 180 185 186 186 186 185 175 166 162 167 179 179 171 168 158 153 153 154 155 152 154 160 155 143
315 303 290 276 265 256 250 247 246 247 246 236 227 227 229 229 231 231 228 226 225 226 226 227 225 223 224 222 224 228 226 219 210 206 204 205 213 219 216 213 208 197 191 187 186 184 178 177 181 188 192 195 198 195 190 188 188 186 183 181 178 180 186 188 187 189 187 177 169 165 165 176 188 178 171 165 161 162 163 166 165 168 171 167 163
336 319 300 281 268 258 250 247 246 247 247 241 229 226 228 227 228 230 230 229 227 226 225 225 225 224 224 222 222 225 224 217 207 203 204 206 211 217 214 209 206 201 195 189 190 191 185 179 181 191 197 197 197 193 189 186 185 184 180 180 182 183 188 192 191 191 192 185 174 172 169 171 183 183 178 176 173 172 173 173 173 178 180 176 174
4 349 325 295 272 259 250 246 246 245 243 241 233 227 228 228 226 226 228 229 228 226 224 223 223 222 221 221 221 220 219 216 209 206 208 210 210 211 212 210 212 210 198 192 194 194 190 184 184 193 198 200 197 192 188 184 181 181 179 180 184 188 190 193 195 194 195 196 188 182 178 176 179 182 184 189 184 180 186 186 182 185 187 185 184
13 7 355 328 294 269 254 247 246 245 242 236 229 224 223 224 224 224 226 228 227 224 221 220 218 216 216 219 220 217 215 215 213 212 212 213 212 211 212 213 215 212 202 197 197 195 194 191 191 195 195 195 196 194 190 185 180 179 180 181 182 186 190 193 197 197 197 200 199 193 188 185 184 184 183 189 192 190 197 201 196 195 196 197 197
11 9 4 354 333 301 269 254 248 246 242 232 223 220 219 219 222 223 221 222 225 224 220 218 215 211 212 216 219 216 213 212 212 212 212 214 215 214 216 217 217 212 205 202 201 199 199 196 193 195 195 192 190 192 192 188 181 177 177 180 182 184 188 192 196 201 201 201 203 197 192 189 187 188 187 189 197 199 202 207 208 209 208 207 207
5 4 1 358 350 333 304 275 255 247 245 236 225 223 222 219 220 220 217 215 220 223 220 217 214 208 208 213 216 216 212 209 209 209 210 213 216 216 217 215 213 209 204 205 207 203 200 200 197 195 198 196 190 190 192 190 185 182 179 176 179 183 186 192 194 199 202 203 207 203 194 191 189 191 191 194 202 206 208 208 211 218 218 216 216
0 360 358 357 353 345 332 308 273 252 248 242 231 225 226 224 220 219 218 214 215 220 220 218 214 206 206 210 214 215 212 209 207 207 208 211 213 215 215 210 206 207 208 207 208 205 200 199 199 197 196 196 192 190 193 195 190 184 181 177 179 180 181 191 194 196 200 201 207 208 203 198 194 194 196 198 203 209 215 214 215 220 221 222 224
358 357 356 356 353 348 341 327 300 267 252 247 239 230 227 227 226 223 220 215 212 214 217 219 217 207 204 209 212 214 212 209 206 206 208 210 209 210 213 212 210 213 215 211 207 205 202 200 202 204 201 195 191 190 194 200 200 190 182 178 178 181 186 192 194 195 199 201 204 209 210 209 206 205 206 209 212 216 220 220 220 223 224 225 228
357 354 351 351 351 349 344 335 319 290 264 253 246 237 230 228 229 227 223 219 215 213 215 219 217 208 205 206 209 213 212 210 207 206 208 210 209 208 210 213 215 216 215 214 212 208 206 207 210 211 209 200 192 191 193 199 207 205 194 182 175 188 196 192 190 194 199 201 204 207 210 213 214 215 216 219 222 225 226 226 226 227 227 228 230
353 351 348 347 347 346 344 338 329 312 284 261 248 239 232 229 227 224 220 216 213 212 214 216 213 207 205 204 205 211 213 211 208 207 209 210 210 209 208 210 214 214 213 215 217 215 214 215 215 214 214 207 197 193 194 196 202 209 209 200 191 197 197 187 185 191 197 201 204 205 208 211 213 216 218 221 224 226 228 227 227 228 228 229 231
349 347 346 345 343 342 343 338 331 324 307 280 255 241 234 230 227 225 221 216 212 211 212 213 212 209 206 203 203 209 214 213 209 209 210 211 211 209 206 208 212 213 214 215 216 216 216 215 214 212 212 209 202 199 198 197 198 203 210 210 207 206 199 192 191 189 191 198 203 203 205 208 211 214 216 219 222 224 226 226 226 226 227 228 230
349 347 345 346 340 337 339 335 330 327 320 304 272 249 237 230 227 226 225 221 216 212 211 212 213 211 207 205 203 207 214 216 212 211 211 211 211 208 206 208 211 212 214 217 218 217 217 216 214 212 211 208 206 205 203 201 200 201 204 208 212 210 202 203 202 196 191 193 198 202 203 205 209 212 214 217 221 223 223 224 224 224 223 224 225
348 347 343 344 340 332 333 332 328 327 326 318 293 262 243 233 228 227 227 226 222 217 213 211 211 211 210 208 205 205 212 218 216 213 211 210 210 209 207 208 210 212 213 217 220 219 220 219 216 213 212 210 208 208 208 207 204 203 201 203 208 209 209 212 209 206 202 195 195 199 201 202 206 210 214 217 219 221 222 221 219 219 218 218 219
346 345 341 342 339 329 328 329 326 326 327 323 308 279 252 238 231 227 227 226 224 221 218 212 209 210 211 210 208 206 209 216 218 215 212 210 210 210 209 209 212 213 214 217 218 217 217 216 214 214 213 212 212 211 211 212 210 208 205 201 201 204 208 210 205 204 206 202 196 196 198 200 202 204 209 214 216 217 217 216 213 212 212 212 212
344 343 340 340 339 332 325 324 326 330 329 322 314 291 260 244 236 229 225 223 221 220 219 214 210 209 210 211 210 208 208 212 217 216 213 211 210 210 210 211 214 215 216 217 217 213 208 205 205 209 214 216 215 214 214 216 216 215 211 206 201 200 203 206 204 199 201 203 197 194 195 198 200 202 203 207 211 211 208 206 204 204 206 208 212